TimeCDT,TemperatureF,Dew PointF,Humidity,Sea Level PressureIn,VisibilityMPH,Wind Direction,Wind SpeedMPH,Gust SpeedMPH,PrecipitationIn,Events,Conditions,WindDirDegrees,DateUTC
12:53 AM,43.0,42.1,97,30.06,8.0,South,3.5,-,N/A,,Clear,190,2013-10-23 05:53:00
1:53 AM,43.0,42.1,97,30.07,10.0,Calm,Calm,-,N/A,,Clear,0,2013-10-23 06:53:00
2:53 AM,41.0,39.9,96,30.07,9.0,Calm,Calm,-,N/A,,Clear,0,2013-10-23 07:53:00
3:20 AM,41.0,39.2,93,30.05,1.8,Calm,Calm,-,N/A,,Clear,0,2013-10-23 08:20:00
3:41 AM,41.0,39.2,93,30.05,3.0,Calm,Calm,-,N/A,,Clear,0,2013-10-23 08:41:00
3:44 AM,41.0,39.2,93,30.05,0.8,Calm,Calm,-,N/A,,Clear,0,2013-10-23 08:44:00
3:53 AM,42.1,39.9,92,30.07,0.2,Calm,Calm,-,N/A,Fog,Fog,0,2013-10-23 08:53:00
4:10 AM,41.0,39.2,93,30.05,2.5,Calm,Calm,-,N/A,,Clear,0,2013-10-23 09:10:00
4:17 AM,39.2,39.2,100,30.05,6.0,Calm,Calm,-,N/A,,Clear,0,2013-10-23 09:17:00
4:53 AM,41.0,39.0,93,30.08,7.0,Calm,Calm,-,N/A,,Clear,0,2013-10-23 09:53:00
5:53 AM,45.0,43.0,93,30.10,10.0,NNW,3.5,-,N/A,,Clear,330,2013-10-23 10:53:00
6:53 AM,43.0,42.1,97,30.11,7.0,Calm,Calm,-,N/A,,Clear,0,2013-10-23 11:53:00
7:30 AM,42.8,42.8,100,30.10,1.8,Calm,Calm,-,N/A,,Clear,0,2013-10-23 12:30:00
7:42 AM,42.8,41.0,93,30.10,0.5,Calm,Calm,-,N/A,Fog,Fog,0,2013-10-23 12:42:00
7:51 AM,44.6,42.8,93,30.11,2.5,Calm,Calm,-,N/A,,Clear,0,2013-10-23 12:51:00
7:53 AM,45.0,44.1,97,30.13,3.0,Calm,Calm,-,N/A,,Clear,0,2013-10-23 12:53:00
8:53 AM,57.9,53.1,84,30.15,10.0,Calm,Calm,-,N/A,,Clear,0,2013-10-23 13:53:00
9:53 AM,62.1,48.0,60,30.17,10.0,NNE,13.8,-,N/A,,Clear,30,2013-10-23 14:53:00
10:53 AM,64.9,48.0,54,30.17,10.0,North,9.2,-,N/A,,Clear,10,2013-10-23 15:53:00
11:53 AM,68.0,46.9,47,30.17,10.0,North,10.4,-,N/A,,Clear,10,2013-10-23 16:53:00
12:53 PM,70.0,44.1,39,30.17,10.0,North,11.5,18.4,N/A,,Clear,10,2013-10-23 17:53:00
1:53 PM,71.1,43.0,36,30.13,10.0,NNE,8.1,17.3,N/A,,Clear,30,2013-10-23 18:53:00
2:53 PM,71.1,41.0,34,30.12,10.0,North,8.1,-,N/A,,Clear,10,2013-10-23 19:53:00
3:53 PM,71.1,39.0,31,30.13,10.0,NNE,8.1,-,N/A,,Clear,20,2013-10-23 20:53:00
4:53 PM,70.0,39.0,32,30.13,10.0,North,8.1,-,N/A,,Clear,360,2013-10-23 21:53:00
5:53 PM,64.0,43.0,46,30.14,10.0,North,3.5,-,N/A,,Clear,350,2013-10-23 22:53:00
6:53 PM,50.0,46.0,86,30.14,10.0,Calm,Calm,-,N/A,,Clear,0,2013-10-23 23:53:00
7:53 PM,46.0,43.0,89,30.15,10.0,Calm,Calm,-,N/A,,Clear,0,2013-10-24 00:53:00
8:53 PM,44.1,43.0,96,30.16,10.0,Calm,Calm,-,N/A,,Clear,0,2013-10-24 01:53:00
9:53 PM,43.0,41.0,93,30.17,10.0,Calm,Calm,-,N/A,,Clear,0,2013-10-24 02:53:00
10:53 PM,41.0,39.9,96,30.17,10.0,Calm,Calm,-,N/A,,Clear,0,2013-10-24 03:53:00
11:53 PM,42.1,39.9,92,30.16,10.0,South,3.5,-,N/A,,Clear,180,2013-10-24 04:53:00